DW8450 Weather Reports


Display with metric or nautical units.
time (UTC)temp
F
wind
direction
speed
MPH
gust
MPH
rain 1hr
in
rain 24hr
in
rain mn
in
humidity
%
barometer
mb
20260505194542 61 226 6.0 11.0 0.00 0.00 0.00 41 1003.3
20260505193035 60 199 3.0 13.0 0.00 0.00 0.00 44 1003.0
20260505191542 60 225 4.0 10.0 0.00 0.00 0.00 39 1003.3
20260505190035 60 188 2.0 10.0 0.00 0.00 0.00 39 1003.3
20260505184543 59 234 3.0 13.0 0.00 0.00 0.00 40 1003.5
20260505183036 58 232 3.0 9.0 0.00 0.00 0.00 41 1003.6
20260505181526 58 255 2.0 9.0 0.00 0.00 0.00 41 1003.4
20260505180024 57 284 2.0 10.0 0.00 0.00 0.00 41 1003.6
20260505174523 58 279 2.0 8.0 0.00 0.00 0.00 39 1003.9
20260505173021 57 256 4.0 10.0 0.00 0.00 0.00 39 1003.8
20260505171519 57 286 2.0 9.0 0.00 0.00 0.00 39 1004.0
20260505170015 55 256 2.0 9.0 0.00 0.00 0.00 41 1004.1
20260505164515 54 283 5.0 11.0 0.00 0.00 0.00 44 1004.4
20260505163011 52 281 5.0 10.0 0.00 0.00 0.00 44 1004.5
20260505161509 52 281 3.0 12.0 0.00 0.00 0.00 44 1004.7
20260505153008 52 292 6.0 12.0 0.00 0.00 0.00 43 1004.7
20260505151507 52 273 7.0 13.0 0.00 0.00 0.00 44 1004.7
20260505124600 48 297 5.0 10.0 0.00 0.00 0.00 45 1004.5
20260505123055 48 286 5.0 10.0 0.00 0.00 0.00 44 1004.5
20260505121550 48 288 3.0 7.0 0.00 0.00 0.00 42 1004.5
20260505120045 49 288 2.0 8.0 0.00 0.00 0.00 41 1004.5
20260505114542 50 291 1.0 7.0 0.00 0.00 0.00 39 1004.1
20260505113043 50 281 3.0 11.0 0.00 0.00 0.00 38 1004.2
20260505111545 50 281 4.0 13.0 0.00 0.00 0.00 39 1004.2
20260505101536 51 273 3.0 10.0 0.00 0.00 0.00 40 1004.0
20260505100035 51 246 3.0 9.0 0.00 0.00 0.00 39 1004.0
20260505094528 52 257 1.0 9.0 0.00 0.00 0.00 39 1004.2
20260505093032 52 251 2.0 9.0 0.00 0.00 0.00 38 1004.5
20260505091523 53 294 1.0 7.0 0.00 0.00 0.00 36 1004.4
20260505090023 53 298 0.0 1.0 0.00 0.00 0.00 34 1004.6
20260505084526 54 298 0.0 7.0 0.00 0.00 0.00 34 1004.8
20260505083016 54 300 3.0 9.0 0.00 0.00 0.00 33 1004.7
20260505081514 55 292 5.0 12.0 0.00 0.00 0.00 32 1005.3
20260505080022 55 276 5.0 12.0 0.00 0.00 0.00 31 1004.9
20260505074510 55 288 5.0 12.0 0.00 0.00 0.00 30 1005.2
20260505073008 55 259 4.0 10.0 0.00 0.00 0.00 30 1005.1
20260505071506 55 278 5.0 11.0 0.00 0.00 0.00 29 1005.0
20260505070008 55 281 4.0 10.0 0.00 0.00 0.00 29 1004.7
20260505064511 56 279 2.0 8.0 0.00 0.00 0.00 30 1005.0
20260505063003 56 278 3.0 13.0 0.00 0.00 0.00 29 1005.1
20260505061628 56 277 2.0 9.0 0.00 0.00 0.00 30 1005.0
20260505060101 56 282 3.0 8.0 0.00 0.00 0.00 30 1005.3
20260505054557 56 280 0.0 4.0 0.00 0.00 0.00 31 1005.1
20260505053056 56 280 1.0 4.0 0.00 0.00 0.00 31 1005.1
20260505051556 55 280 0.0 7.0 0.00 0.00 0.00 31 1004.9
20260505041601 56 280 0.0 4.0 0.00 0.00 0.00 29 1005.2
20260505034556 58 280 0.0 5.0 0.00 0.00 0.00 27 1005.2
20260505033100 59 280 3.0 6.0 0.00 0.00 0.00 26 1005.0
20260505031556 60 281 3.0 9.0 0.00 0.00 0.00 25 1004.9
20260505030052 60 278 5.0 11.0 0.00 0.00 0.00 24 1004.5
20260505024552 61 283 5.0 11.0 0.00 0.00 0.00 23 1004.4
20260505023051 62 288 6.0 14.0 0.00 0.00 0.00 22 1004.1
20260505021551 62 291 6.0 14.0 0.00 0.00 0.00 20 1004.1
20260505020050 63 299 6.0 12.0 0.00 0.00 0.00 18 1003.9
20260505014550 64 288 7.0 14.0 0.00 0.00 0.00 18 1003.6
20260505013049 64 284 6.0 17.0 0.00 0.00 0.00 17 1003.4
20260505011549 65 289 6.0 13.0 0.00 0.00 0.00 16 1003.2
20260505010058 65 263 5.0 13.0 0.00 0.00 0.00 14 1003.2
20260505004548 66 298 8.0 15.0 0.00 0.00 0.00 15 1003.2
20260505003048 66 282 6.0 12.0 0.00 0.00 0.00 16 1003.0
20260505001547 66 290 7.0 16.0 0.00 0.00 0.00 16 1003.2
20260505000055 67 265 5.0 15.0 0.00 0.00 0.00 17 1003.4
20260504234548 68 290 7.0 14.0 0.00 0.00 0.00 17 1003.4
20260504233045 68 289 10.0 15.0 0.00 0.00 0.00 17 1003.5
20260504231544 68 288 5.0 19.0 0.00 0.00 0.00 17 1003.5
20260504230042 69 280 10.0 18.0 0.00 0.00 0.00 17 1003.5
20260504224540 69 275 4.0 16.0 0.00 0.00 0.00 17 1003.8
20260504223039 68 220 4.0 11.0 0.00 0.00 0.00 18 1003.9
20260504221541 68 270 6.0 15.0 0.00 0.00 0.00 18 1004.3
20260504220046 67 279 5.0 13.0 0.00 0.00 0.00 18 1004.7
20260504214537 68 267 6.0 14.0 0.00 0.00 0.00 18 1004.6
20260504213045 68 293 7.0 16.0 0.00 0.00 0.00 17 1004.9
20260504211538 69 269 6.0 13.0 0.00 0.00 0.00 16 1005.3
20260504210104 66 284 7.0 19.0 0.00 0.00 0.00 17 1005.7
20260504204536 65 264 9.0 23.0 0.00 0.00 0.00 16 1006.0
20260504203024 65 306 10.0 22.0 0.00 0.00 0.00 13 1006.3
20260504201523 66 266 11.0 20.0 0.00 0.00 0.00 13 1006.3
20260504200022 67 302 8.0 16.0 0.00 0.00 0.00 14 1006.2